Weather History for Claremore, OK

Change the Weather History Date:

Thursday, November 8, 2012

  Actual Average (KTUL) Record (KTUL)
Temperature  
Mean Temperature 56 °F 54 °F  
Max Temperature 71 °F 65 °F 85 °F (2005)
Min Temperature 41 °F 43 °F 16 °F (1991)
Degree Days  
Heating Degree Days 9 12  
Month to date heating degree days 83  
Since 1 July heating degree days 269  
Growing Degree Days 6 (Base 50)    
Moisture  
Dew Point 38 °F    
Average Humidity 53    
Maximum Humidity 76    
Minimum Humidity 33    
Precipitation  
Precipitation 0.00 in 0.11 in 1.66 in (2011)
Month to date precipitation 0.88  
Year to date precipitation 36.55  
Sea Level Pressure  
Sea Level Pressure 30.03 in    
Wind  
Wind Speed 11 mph (SSE)    
Max Wind Speed 25 mph    
Max Gust Speed 34 mph    
Visibility 10 miles    
Events      
T = Trace of Precipitation, MM = Missing Value Source: NWS Daily Summary

Daily Weather History Graph

Daily Weather History Graph

Search for Another Location

Airport:

Trip Planner

Search our weather history database for the weather conditions in past years. The results will help you decide how hot, cold, wet, or windy it might be!

Date:

Astronomy

Nov. 08, 2012 Rise Set
Actual Time 6:52 AM CST 5:18 PM CST
Civil Twilight 6:25 AM CST 5:45 PM CST
Nautical Twilight 5:54 AM CST 6:16 PM CST
Astronomical Twilight 5:24 AM CST 6:46 PM CST
Moon 12:58 AM CST (11/8) 1:51 PM CST (11/8)
Length of Visible Light 11h 20m
Length of Day
10h 26m
Waning Crescent, 32% of the Moon is Illuminated
Nov 8
Waning Crescent
Nov 13
New
Nov 20
First Quarter
Nov 28
Full
Dec 6
Last Quarter

Hourly Weather History & Observations

Time (CST) Temp. Windchill Dew Point Humidity Pressure Visibility Wind Dir Wind Speed Gust Speed Precip Events Conditions
12:15 AM 41.0 °F 37.1 °F 32.0 °F 70% 30.13 in 10.0 mi East 5.8 mph - N/A   Clear
12:35 AM 44.6 °F 41.4 °F 32.0 °F 61% 30.13 in 10.0 mi ESE 5.8 mph - N/A   Clear
12:55 AM 42.8 °F 40.1 °F 32.0 °F 66% 30.14 in 10.0 mi ESE 4.6 mph - N/A   Clear
1:15 AM 42.8 °F 40.1 °F 32.0 °F 66% 30.13 in 10.0 mi ESE 4.6 mph - N/A   Clear
1:35 AM 41.0 °F 35.2 °F 32.0 °F 70% 30.13 in 10.0 mi ESE 9.2 mph - N/A   Clear
1:55 AM 42.8 °F 38.6 °F 32.0 °F 66% 30.13 in 10.0 mi ESE 6.9 mph - N/A   Clear
2:15 AM 41.0 °F 34.7 °F 32.0 °F 70% 30.13 in 10.0 mi ESE 10.4 mph - N/A   Clear
2:35 AM 44.6 °F 39.2 °F 32.0 °F 61% 30.12 in 10.0 mi ESE 10.4 mph - N/A   Clear
2:55 AM 44.6 °F 39.2 °F 32.0 °F 61% 30.12 in 10.0 mi ESE 10.4 mph - N/A   Clear
3:15 AM 44.6 °F 38.8 °F 32.0 °F 61% 30.11 in 10.0 mi ESE 11.5 mph - N/A   Clear
3:35 AM 42.8 °F 37.0 °F 32.0 °F 66% 30.10 in 10.0 mi ESE 10.4 mph - N/A   Clear
3:55 AM 42.8 °F 37.0 °F 32.0 °F 66% 30.10 in 10.0 mi ESE 10.4 mph - N/A   Clear
4:15 AM 42.8 °F 37.5 °F 32.0 °F 66% 30.10 in 10.0 mi ESE 9.2 mph - N/A   Clear
4:35 AM 42.8 °F 37.5 °F 32.0 °F 66% 30.10 in 10.0 mi SE 9.2 mph - N/A   Clear
4:55 AM 42.8 °F 38.0 °F 32.0 °F 66% 30.11 in 10.0 mi SE 8.1 mph - N/A   Clear
5:15 AM 42.8 °F 38.6 °F 32.0 °F 66% 30.11 in 10.0 mi SE 6.9 mph - N/A   Clear
5:35 AM 42.8 °F 37.0 °F 32.0 °F 66% 30.11 in 10.0 mi SE 10.4 mph - N/A   Clear
5:55 AM 42.8 °F 36.6 °F 32.0 °F 66% 30.10 in 10.0 mi SE 11.5 mph - N/A   Clear
6:15 AM 42.8 °F 37.0 °F 32.0 °F 66% 30.10 in 10.0 mi SE 10.4 mph - N/A   Clear
6:55 AM 42.8 °F 38.0 °F 32.0 °F 66% 30.10 in 10.0 mi SE 8.1 mph - N/A   Clear
7:15 AM 41.0 °F 35.8 °F 33.8 °F 76% 30.11 in 10.0 mi SE 8.1 mph - N/A   Clear
7:35 AM 42.8 °F 37.0 °F 33.8 °F 70% 30.11 in 10.0 mi SSE 10.4 mph - N/A   Clear
7:55 AM 44.6 °F 39.7 °F 35.6 °F 71% 30.11 in 10.0 mi SSE 9.2 mph - N/A   Clear
8:15 AM 46.4 °F 41.9 °F 35.6 °F 66% 30.12 in 10.0 mi SSE 9.2 mph - N/A   Clear
8:35 AM 50.0 °F - 35.6 °F 58% 30.12 in 10.0 mi SSE 10.4 mph - N/A   Clear
8:55 AM 51.8 °F - 35.6 °F 54% 30.12 in 10.0 mi South 10.4 mph - N/A   Clear
9:15 AM 53.6 °F - 35.6 °F 51% 30.11 in 10.0 mi South 19.6 mph 23.0 mph N/A   Clear
11:55 AM 62.6 °F - 35.6 °F 37% 30.06 in 10.0 mi SSE 18.4 mph 27.6 mph N/A   Unknown
12:15 PM 62.6 °F - 35.6 °F 37% 30.04 in 10.0 mi SSE 18.4 mph 24.2 mph N/A   Clear
12:35 PM 64.4 °F - 35.6 °F 34% 30.03 in 10.0 mi SSE 16.1 mph 25.3 mph N/A   Clear
12:55 PM 64.4 °F - 37.4 °F 37% 30.02 in 10.0 mi South 17.3 mph 25.3 mph N/A   Clear
1:15 PM 66.2 °F - 37.4 °F 35% 30.00 in 10.0 mi SSE 18.4 mph 28.8 mph N/A   Clear
1:35 PM 66.2 °F - 37.4 °F 35% 29.99 in 10.0 mi SSE 20.7 mph 28.8 mph N/A   Clear
1:55 PM 68.0 °F - 37.4 °F 33% 29.98 in 10.0 mi South 19.6 mph 27.6 mph N/A   Clear
2:15 PM 69.8 °F - 39.2 °F 33% 29.96 in 10.0 mi South 20.7 mph 28.8 mph N/A   Clear
2:35 PM 69.8 °F - 39.2 °F 33% 29.95 in 10.0 mi SSE 19.6 mph 27.6 mph N/A   Clear
2:55 PM 69.8 °F - 41.0 °F 35% 29.94 in 10.0 mi South 25.3 mph 28.8 mph N/A   Clear
3:15 PM 69.8 °F - 41.0 °F 35% 29.93 in 10.0 mi SSE 21.9 mph 32.2 mph N/A   Clear
3:35 PM 71.6 °F - 41.0 °F 33% 29.93 in 10.0 mi South 23.0 mph 34.5 mph N/A   Clear
3:55 PM 71.6 °F - 41.0 °F 33% 29.93 in 10.0 mi SSE 19.6 mph 26.5 mph N/A   Clear
4:15 PM 71.6 °F - 42.8 °F 35% 29.93 in 10.0 mi South 12.7 mph 25.3 mph N/A   Clear
4:35 PM 69.8 °F - 42.8 °F 38% 29.93 in 10.0 mi SSE 17.3 mph 25.3 mph N/A   Clear
4:55 PM 69.8 °F - 42.8 °F 38% 29.93 in 10.0 mi South 15.0 mph 21.9 mph N/A   Clear
5:15 PM 68.0 °F - 44.6 °F 43% 29.93 in 10.0 mi South 11.5 mph - N/A   Clear
5:35 PM 66.2 °F - 44.6 °F 46% 29.94 in 10.0 mi South 9.2 mph - N/A   Clear
5:55 PM 64.4 °F - 44.6 °F 49% 29.95 in 10.0 mi South 9.2 mph - N/A   Clear
6:15 PM 64.4 °F - 44.6 °F 49% 29.96 in 10.0 mi South 12.7 mph 17.3 mph N/A   Clear
6:35 PM 64.4 °F - 44.6 °F 49% 29.96 in 10.0 mi South 10.4 mph 17.3 mph N/A   Clear
6:55 PM 62.6 °F - 44.6 °F 52% 29.96 in 10.0 mi South 10.4 mph 17.3 mph N/A   Clear
7:15 PM 62.6 °F - 44.6 °F 52% 29.96 in 10.0 mi South 15.0 mph 20.7 mph N/A   Clear
7:35 PM 62.6 °F - 44.6 °F 52% 29.97 in 10.0 mi South 13.8 mph 20.7 mph N/A   Clear
7:55 PM 62.6 °F - 44.6 °F 52% 29.96 in 10.0 mi SSE 13.8 mph 18.4 mph N/A   Clear
8:15 PM 62.6 °F - 44.6 °F 52% 29.97 in 10.0 mi SSE 13.8 mph 20.7 mph N/A   Clear
8:35 PM 62.6 °F - 44.6 °F 52% 29.96 in 10.0 mi SSE 16.1 mph 21.9 mph N/A   Clear
9:15 PM 60.8 °F - 42.8 °F 52% 29.96 in 10.0 mi SSE 15.0 mph 21.9 mph N/A   Clear
9:35 PM 60.8 °F - 42.8 °F 52% 29.97 in 10.0 mi South 12.7 mph 18.4 mph N/A   Clear
10:15 PM 60.8 °F - 42.8 °F 52% 29.97 in 10.0 mi SSE 13.8 mph 20.7 mph N/A   Clear
10:35 PM 59.0 °F - 42.8 °F 55% 29.97 in 10.0 mi South 11.5 mph 17.3 mph N/A   Clear
11:15 PM 59.0 °F - 42.8 °F 55% 29.97 in 10.0 mi South 11.5 mph 17.3 mph N/A   Clear
11:35 PM 59.0 °F - 42.8 °F 55% 29.96 in 10.0 mi South 12.7 mph 18.4 mph N/A   Clear